This is the latest recevied weather packets stored in our database for station/object W0AKY-13. If no packets are shown the sender has not sent any weather packets the latest 10 day(s).
| Time | Temp. | Humidity | Pressure | Rain* | Wind** | Luminosity | Snow |
|---|---|---|---|---|---|---|---|
| 1777673310 | 16.11° C | 37% | 1019 hPa | 0 mm | - | 330 W/m² | - |
| 1777672399 | 16.11° C | 35% | 1019 hPa | 0 mm | - | 371 W/m² | - |
| 1777671790 | 16.11° C | 31% | 1019.1 hPa | 0 mm | - | 388 W/m² | - |
| 1777671487 | 16.11° C | 38% | 1019.1 hPa | 0 mm | - | 406 W/m² | - |
| 1777671183 | 16.11° C | 37% | 1019.1 hPa | 0 mm | - | 423 W/m² | - |
| 1777670879 | 16.11° C | 37% | 1019.1 hPa | 0 mm | - | 429 W/m² | - |
| 1777670575 | 15.56° C | 35% | 1019.4 hPa | 0 mm | - | 440 W/m² | - |
| 1777670273 | 16.11° C | 34% | 1019.4 hPa | 0 mm | - | 452 W/m² | - |
| 1777669970 | 16.11° C | 38% | 1019.3 hPa | 0 mm | - | 462 W/m² | - |
| 1777669667 | 16.11° C | 38% | 1019.1 hPa | 0 mm | - | 475 W/m² | - |
| 1777669363 | 16.67° C | 36% | 1019.2 hPa | 0 mm | - | 496 W/m² | - |
| 1777669060 | 16.11° C | 40% | 1019.2 hPa | 0 mm | - | 501 W/m² | - |
| 1777668151 | 16.11° C | 38% | 1019.3 hPa | 0 mm | - | 532 W/m² | - |
| 1777667847 | 16.11° C | 37% | 1019.7 hPa | 0 mm | - | 539 W/m² | - |
| 1777667544 | 15.56° C | 37% | 1019.4 hPa | 0 mm | - | 554 W/m² | - |
| 1777667241 | 16.11° C | 37% | 1019.4 hPa | 0 mm | - | 217 W/m² | - |
| 1777666938 | 16.11° C | 38% | 1019.7 hPa | 0 mm | - | 573 W/m² | - |
| 1777666635 | 15.56° C | 39% | 1019.6 hPa | 0 mm | - | 583 W/m² | - |
| 1777666332 | 16.11° C | 41% | 1019.9 hPa | 0 mm | - | 586 W/m² | - |
| 1777666028 | 15.56° C | 40% | 1019.8 hPa | 0 mm | - | 612 W/m² | - |
| 1777665726 | 16.11° C | 38% | 1019.6 hPa | 0 mm | - | 386 W/m² | - |
| 1777665423 | 16.11° C | 42% | 1019.7 hPa | 0 mm | - | 572 W/m² | - |
| 1777665119 | 15.56° C | 39% | 1019.6 hPa | 0 mm | - | 629 W/m² | - |
| 1777664815 | 15.56° C | 37% | 1019.8 hPa | 0 mm | - | 230 W/m² | - |
| 1777664510 | 15.56° C | 40% | 1019.7 hPa | 0 mm | - | 652 W/m² | - |
* Rain latest hour (hover to see other rain measurements)
** Current wind speed in m/s (hover to see current wind gust speed)